Flag for United Kingdom Weather past 2 weeks in Stockport, England, United Kingdom

Now
55 °F

Cool.


Feels Like: 53 °F
Forecast: 56 / 67 °F
Wind: 10 mph from South

Location: Manchester Airport

Current Time: Aug 4, 2015 at 2:52:32 AM

Latest Report: Aug 4, 2015 at 2:20 AM


Visibility: N/A

Pressure: 29.74 "Hg

Humidity: 77%

Dew point: 48 °F

Location of StockportLocation

Historic Weather in Stockport — Graph

°F

Stockport temperature yesterday

Maximum temperature yesterday: 70 °F (at 4:50 PM)
Minimum temperature yesterday: 55 °F (at 11:50 PM)
Average temperature yesterday: 65 °F

Past Weeks' High & Low Weather Summary

 TemperatureHumidityPressure
High72 °F (Aug 2, 4:50 PM)100% (Jul 20, 1:20 AM)30.15 "Hg (Jul 20, 1:20 AM)
Low43 °F (Jul 31, 1:20 AM)44% (Aug 2, 5:20 PM)29.33 "Hg (Jul 26, 10:50 PM)
Average58 °F78%29.84 "Hg
* Reported Jul 20 1:20 AM — Aug 4 1:50 AM, Stockport, Weather by CustomWeather, © 2015

Note: Actual official high and low records may vary slightly from our data, if they occured in-between our weather recording intervals... More about our weather records

Advertising

Stockport weather history for previous 24 hours

 ConditionsComfort  
Time TempWeatherWind HumidityBarometerVisibility
1:50 AM
Tue, Aug 4
55 °FClear.10 mph77%29.74 "Hg10 mi
1:20 AM54 °FClear.8 mph82%29.74 "Hg10 mi
12:50 AM55 °FClear.9 mph77%29.77 "Hg10 mi
12:20 AM55 °FCool.10 mph77%29.77 "HgN/A
11:50 PM
Mon, Aug 3
55 °FCool.8 mph77%29.77 "HgN/A
11:20 PM59 °FClear.10 mph68%29.77 "Hg10 mi
10:20 PM59 °FClear.9 mph68%29.77 "Hg10 mi
9:50 PM59 °FSunny.9 mph68%29.77 "Hg10 mi
9:20 PM61 °FSunny.12 mph63%29.77 "Hg10 mi
8:50 PM63 °FPassing clouds.16 mph56%29.77 "HgN/A
8:20 PM64 °FPartly sunny.9 mph60%29.74 "HgN/A
7:50 PM64 °FSunny.12 mph56%29.74 "Hg10 mi
7:20 PM66 °FSunny.15 mph52%29.74 "Hg10 mi
6:50 PM66 °FSunny.12 mph56%29.74 "Hg10 mi
6:20 PM66 °FPassing clouds.14 mph60%29.74 "HgN/A
5:50 PM66 °FPassing clouds.15 mph60%29.74 "HgN/A
5:20 PM68 °FScattered clouds.14 mph53%29.74 "HgN/A
4:50 PM70 °FPassing clouds.15 mph53%29.74 "HgN/A
4:20 PM68 °FPassing clouds.16 mph53%29.74 "HgN/A
3:50 PM68 °FSunny.15 mph53%29.77 "Hg10 mi
3:20 PM66 °FSunny.18 mph60%29.77 "Hg10 mi
2:50 PM66 °FScattered clouds.15 mph64%29.77 "HgN/A
2:20 PM68 °FScattered clouds.15 mph60%29.77 "HgN/A
1:20 PM68 °FScattered clouds.18 mph60%29.77 "HgN/A
12:50 PM68 °FScattered clouds.15 mph64%29.77 "HgN/A
12:20 PM66 °FScattered clouds.14 mph68%29.77 "HgN/A
11:50 AM64 °FScattered showers. Scattered clouds.21 mph73%29.77 "HgN/A
11:20 AM68 °FScattered showers. Scattered clouds.20 mph64%29.74 "HgN/A
10:50 AM68 °FScattered clouds.17 mph69%29.74 "HgN/A
10:20 AM66 °FScattered clouds.15 mph73%29.74 "HgN/A
9:50 AM66 °FPartly sunny.15 mph73%29.74 "HgN/A
9:20 AM64 °FPartly sunny.14 mph78%29.74 "HgN/A
8:50 AM64 °FPassing clouds.14 mph78%29.71 "HgN/A
8:20 AM64 °FPassing clouds.14 mph78%29.71 "HgN/A
7:50 AM64 °FScattered clouds.10 mph73%29.71 "HgN/A
7:20 AM63 °FSunny.10 mph73%29.71 "Hg10 mi
6:50 AM63 °FSunny.12 mph68%29.71 "Hg10 mi
6:20 AM61 °FClear.9 mph68%29.71 "Hg10 mi
5:50 AM61 °FClear.10 mph68%29.68 "Hg10 mi
5:20 AM61 °FClear.12 mph63%29.68 "Hg10 mi
4:50 AM63 °FClear.10 mph59%29.71 "Hg10 mi
3:50 AM64 °FClear.13 mph56%29.71 "Hg10 mi
3:20 AM66 °FClear.12 mph52%29.71 "Hg10 mi
2:50 AM66 °FClear.15 mph52%29.71 "Hg10 mi
2:20 AM68 °FClear.17 mph46%29.71 "Hg10 mi
Weather by CustomWeather, © 2015

See weather overviewHow to use our weather pages